This is the latest recevied weather packets stored in our database for station/object 4S6DRJ-13. If no packets are shown the sender has not sent any weather packets the latest 10 day(s).
| Time | Temp. | Humidity | Pressure | Rain* | Wind** | Luminosity | Snow |
|---|---|---|---|---|---|---|---|
| 1787687916 | 26.67° C | 92% | 1010.4 hPa | 2.54 mm | 0 m/s | 0 W/m² | - |
| 1787687855 | 26.67° C | 92% | 1010.4 hPa | 2.54 mm | 0.45 m/s, 201° | 0 W/m² | - |
| 1787687794 | 26.67° C | 92% | 1010.5 hPa | 2.54 mm | 0.89 m/s, 221° | 0 W/m² | - |
| 1787687732 | 26.67° C | 92% | 1010.6 hPa | 2.54 mm | 0.45 m/s, 249° | 0 W/m² | - |
| 1787687671 | 26.67° C | 92% | 1010.5 hPa | 2.54 mm | 0 m/s | 0 W/m² | - |
| 1787687611 | 26.67° C | 92% | 1010.6 hPa | 2.54 mm | 0 m/s | 0 W/m² | - |
| 1787687549 | 26.67° C | 92% | 1010.7 hPa | 2.54 mm | 0 m/s | 0 W/m² | - |
| 1787687489 | 26.67° C | 92% | 1010.7 hPa | 2.54 mm | 0 m/s | 0 W/m² | - |
| 1787687428 | 26.67° C | 92% | 1010.7 hPa | 2.54 mm | 1.34 m/s, 274° | 0 W/m² | - |
| 1787687367 | 26.67° C | 92% | 1010.6 hPa | 2.54 mm | 0 m/s | 0 W/m² | - |
| 1787687306 | 26.67° C | 92% | 1010.8 hPa | 2.54 mm | 0 m/s | 0 W/m² | - |
| 1787687246 | 26.67° C | 92% | 1010.6 hPa | 2.54 mm | 0 m/s | 0 W/m² | - |
| 1787687184 | 26.67° C | 92% | 1010.6 hPa | 2.54 mm | 0 m/s | 0 W/m² | - |
| 1787687123 | 26.67° C | 92% | 1010.8 hPa | 2.54 mm | 0 m/s | 0 W/m² | - |
| 1787687062 | 26.67° C | 92% | 1010.6 hPa | 2.54 mm | 0 m/s | 0 W/m² | - |
| 1787687000 | 26.67° C | 92% | 1010.6 hPa | 2.54 mm | 0.89 m/s, 242° | 0 W/m² | - |
| 1787686939 | 26.67° C | 92% | 1010.9 hPa | 2.54 mm | 1.34 m/s, 231° | 0 W/m² | - |
| 1787686879 | 26.67° C | 92% | 1011 hPa | 2.54 mm | 0.89 m/s, 202° | 0 W/m² | - |
| 1787686818 | 26.67° C | 92% | 1010.7 hPa | 2.54 mm | 1.34 m/s, 270° | 0 W/m² | - |
| 1787686757 | 26.67° C | 92% | 1010.7 hPa | 2.54 mm | 2.24 m/s, 261° | 0 W/m² | - |
| 1787686696 | 26.67° C | 92% | 1010.6 hPa | 2.54 mm | 0.89 m/s, 221° | 0 W/m² | - |
| 1787686635 | 26.67° C | 92% | 1010.8 hPa | 2.54 mm | 1.79 m/s, 217° | 0 W/m² | - |
| 1787686573 | 26.67° C | 91% | 1010.5 hPa | 2.54 mm | 0.89 m/s, 221° | 0 W/m² | - |
| 1787686512 | 26.11° C | 92% | 1010.7 hPa | 2.29 mm | 1.34 m/s, 241° | 0 W/m² | - |
| 1787686452 | 26.11° C | 92% | 1010.9 hPa | 2.29 mm | 1.79 m/s, 225° | 0 W/m² | - |
* Rain latest hour (hover to see other rain measurements)
** Current wind speed in m/s (hover to see current wind gust speed)